| time (UTC) | temp C | wind direction | speed KPH | gust KPH | rain 1hr cm | rain 24hr cm | rain mn cm | humidity % | barometer mb |
| 20260509084524 | 12 | 40 | 11.3 | 20.9 | 0.00 | 0.00 | 0.00 | 73 | 1025.7 |
| 20260509083022 | 12 | 67 | 9.7 | 22.5 | 0.00 | 0.00 | 0.00 | 75 | 1025.7 |
| 20260509081518 | 12 | 57 | 8.0 | 19.3 | 0.00 | 0.00 | 0.00 | 74 | 1025.7 |
| 20260509080010 | 12 | 347 | 9.7 | 20.9 | 0.00 | 0.00 | 0.00 | 73 | 1025.8 |
| 20260509074511 | 12 | 24 | 9.7 | 17.7 | 0.00 | 0.00 | 0.00 | 75 | 1025.8 |
| 20260509073009 | 12 | 54 | 8.0 | 19.3 | 0.00 | 0.00 | 0.00 | 73 | 1025.8 |
| 20260509071506 | 12 | 38 | 8.0 | 19.3 | 0.00 | 0.00 | 0.00 | 74 | 1025.8 |
| 20260509070004 | 12 | 37 | 8.0 | 17.7 | 0.00 | 0.00 | 0.00 | 76 | 1025.8 |
| 20260509064501 | 12 | 56 | 9.7 | 17.7 | 0.00 | 0.00 | 0.00 | 76 | 1025.9 |
| 20260509063058 | 11 | 68 | 6.4 | 19.3 | 0.00 | 0.00 | 0.00 | 78 | 1026.1 |
| 20260509061605 | 11 | 39 | 11.3 | 22.5 | 0.00 | 0.00 | 0.00 | 79 | 1026.3 |
| 20260509060051 | 11 | 52 | 9.7 | 19.3 | 0.00 | 0.00 | 0.00 | 80 | 1026.4 |
| 20260509054607 | 10 | 88 | 6.4 | 19.3 | 0.00 | 0.00 | 0.00 | 84 | 1026.5 |
| 20260509053042 | 9 | 70 | 11.3 | 20.9 | 0.00 | 0.00 | 0.00 | 85 | 1026.6 |
| 20260509051537 | 8 | 83 | 8.0 | 17.7 | 0.00 | 0.00 | 0.00 | 87 | 1026.6 |
| 20260509044527 | 5 | 57 | 6.4 | 9.7 | 0.00 | 0.00 | 0.00 | 94 | 1026.5 |
| 20260509043022 | 5 | 56 | 4.8 | 14.5 | 0.00 | 0.00 | 0.00 | 95 | 1026.5 |
| 20260509041522 | 4 | 81 | 4.8 | 14.5 | 0.00 | 0.00 | 0.00 | 96 | 1026.4 |
| 20260509033009 | 3 | 64 | 6.4 | 14.5 | 0.00 | 0.00 | 0.00 | 96 | 1026.7 |
| 20260509031521 | 3 | 59 | 4.8 | 16.1 | 0.00 | 0.00 | 0.00 | 96 | 1026.8 |
| 20260509030126 | 3 | 42 | 4.8 | 14.5 | 0.00 | 0.00 | 0.00 | 96 | 1026.8 |
| 20260509021544 | 3 | 71 | 4.8 | 9.7 | 0.00 | 0.00 | 0.00 | 96 | 1026.8 |
| 20260509020045 | 3 | 38 | 3.2 | 9.7 | 0.00 | 0.00 | 0.00 | 95 | 1026.8 |
| 20260509014543 | 3 | 60 | 4.8 | 11.3 | 0.00 | 0.00 | 0.00 | 95 | 1026.9 |
| 20260509013039 | 3 | 49 | 4.8 | 11.3 | 0.00 | 0.00 | 0.00 | 94 | 1026.8 |
| 20260509011539 | 4 | 49 | 4.8 | 14.5 | 0.00 | 0.00 | 0.00 | 94 | 1026.7 |
| 20260509010044 | 4 | 44 | 6.4 | 16.1 | 0.00 | 0.00 | 0.00 | 93 | 1026.8 |
| 20260509004535 | 4 | 40 | 6.4 | 12.9 | 0.00 | 0.00 | 0.00 | 93 | 1026.7 |
| 20260509003033 | 4 | 46 | 8.0 | 17.7 | 0.00 | 0.00 | 0.00 | 93 | 1026.9 |
| 20260509001532 | 4 | 47 | 6.4 | 16.1 | 0.00 | 0.00 | 0.00 | 92 | 1027.1 |
| 20260509000029 | 4 | 38 | 4.8 | 11.3 | 0.00 | 0.00 | 0.00 | 92 | 1027.1 |
| 20260508234527 | 4 | 37 | 6.4 | 14.5 | 0.00 | 0.00 | 0.00 | 91 | 1027.3 |
| 20260508233026 | 4 | 30 | 8.0 | 16.1 | 0.00 | 0.00 | 0.00 | 91 | 1027.3 |
| 20260508231522 | 4 | 53 | 6.4 | 14.5 | 0.00 | 0.00 | 0.00 | 90 | 1027.2 |
| 20260508230020 | 4 | 63 | 6.4 | 11.3 | 0.00 | 0.00 | 0.00 | 89 | 1027.3 |
| 20260508224520 | 4 | 52 | 4.8 | 12.9 | 0.00 | 0.00 | 0.00 | 88 | 1027.4 |
| 20260508223016 | 4 | 80 | 4.8 | 9.7 | 0.00 | 0.00 | 0.00 | 87 | 1027.5 |
| 20260508221514 | 4 | 69 | 4.8 | 11.3 | 0.00 | 0.00 | 0.00 | 85 | 1027.6 |
| 20260508220036 | 4 | 53 | 4.8 | 9.7 | 0.00 | 0.00 | 0.00 | 85 | 1027.7 |
| 20260508214511 | 5 | 40 | 6.4 | 9.7 | 0.00 | 0.00 | 0.00 | 84 | 1027.8 |
| 20260508213010 | 5 | 40 | 3.2 | 11.3 | 0.00 | 0.00 | 0.00 | 83 | 1027.7 |
| 20260508211508 | 5 | 52 | 4.8 | 8.0 | 0.00 | 0.00 | 0.00 | 83 | 1027.7 |
| 20260508210009 | 5 | 51 | 3.2 | 8.0 | 0.00 | 0.00 | 0.00 | 82 | 1027.7 |
| 20260508204508 | 5 | 61 | 3.2 | 8.0 | 0.00 | 0.00 | 0.00 | 81 | 1027.7 |
| 20260508203006 | 6 | 63 | 1.6 | 8.0 | 0.00 | 0.00 | 0.00 | 80 | 1027.5 |
| 20260508201506 | 6 | 53 | 3.2 | 8.0 | 0.00 | 0.00 | 0.00 | 79 | 1027.4 |
| 20260508200004 | 6 | 54 | 3.2 | 6.4 | 0.00 | 0.00 | 0.00 | 78 | 1027.4 |
| 20260508194504 | 6 | 28 | 4.8 | 8.0 | 0.00 | 0.00 | 0.00 | 78 | 1027.2 |
| 20260508193004 | 7 | 47 | 3.2 | 8.0 | 0.00 | 0.00 | 0.00 | 76 | 1027.3 |
| 20260508191505 | 7 | 29 | 6.4 | 16.1 | 0.00 | 0.00 | 0.00 | 75 | 1027.3 |
| 20260508190003 | 7 | 22 | 6.4 | 14.5 | 0.00 | 0.00 | 0.00 | 74 | 1027.2 |
| 20260508184504 | 8 | 58 | 8.0 | 20.9 | 0.00 | 0.00 | 0.00 | 74 | 1027.1 |
| 20260508183100 | 8 | 39 | 9.7 | 17.7 | 0.00 | 0.00 | 0.00 | 72 | 1027.0 |
| 20260508181610 | 8 | 32 | 4.8 | 14.5 | 0.00 | 0.00 | 0.00 | 70 | 1026.9 |
| 20260508180108 | 9 | 33 | 9.7 | 20.9 | 0.00 | 0.00 | 0.00 | 69 | 1026.7 |
| 20260508174619 | 10 | 32 | 8.0 | 17.7 | 0.00 | 0.00 | 0.00 | 66 | 1026.6 |
| 20260508173100 | 10 | 38 | 9.7 | 17.7 | 0.00 | 0.00 | 0.00 | 63 | 1026.4 |
| 20260508171558 | 10 | 55 | 8.0 | 20.9 | 0.00 | 0.00 | 0.00 | 63 | 1026.5 |
| 20260508170059 | 10 | 40 | 9.7 | 20.9 | 0.00 | 0.00 | 0.00 | 61 | 1026.6 |
| 20260508164556 | 11 | 64 | 9.7 | 19.3 | 0.00 | 0.00 | 0.00 | 62 | 1026.5 |
| 20260508163056 | 11 | 71 | 9.7 | 19.3 | 0.00 | 0.00 | 0.00 | 61 | 1026.5 |
| 20260508161556 | 11 | 78 | 8.0 | 24.1 | 0.00 | 0.00 | 0.00 | 62 | 1026.4 |
| 20260508160058 | 11 | 44 | 11.3 | 22.5 | 0.00 | 0.00 | 0.00 | 60 | 1026.6 |
| 20260508154554 | 12 | 80 | 8.0 | 20.9 | 0.00 | 0.00 | 0.00 | 59 | 1026.7 |
| 20260508153057 | 13 | 55 | 12.9 | 24.1 | 0.00 | 0.00 | 0.00 | 54 | 1026.7 |
| 20260508151552 | 13 | 51 | 6.4 | 19.3 | 0.00 | 0.00 | 0.00 | 54 | 1026.7 |
| 20260508150054 | 13 | 31 | 14.5 | 25.7 | 0.00 | 0.00 | 0.00 | 52 | 1026.7 |
| 20260508144554 | 14 | 360 | 16.1 | 33.8 | 0.00 | 0.00 | 0.00 | 50 | 1026.8 |
| 20260508143056 | 13 | 49 | 12.9 | 25.7 | 0.00 | 0.00 | 0.00 | 49 | 1026.9 |
| 20260508141557 | 13 | 41 | 16.1 | 25.7 | 0.00 | 0.00 | 0.00 | 51 | 1027.0 |
| 20260508140049 | 13 | 92 | 14.5 | 27.4 | 0.00 | 0.00 | 0.00 | 48 | 1027.0 |
| 20260508134558 | 13 | 19 | 14.5 | 27.4 | 0.00 | 0.00 | 0.00 | 49 | 1027.1 |
| 20260508133048 | 13 | 26 | 17.7 | 30.6 | 0.00 | 0.00 | 0.00 | 48 | 1027.1 |
| 20260508131547 | 13 | 9 | 16.1 | 25.7 | 0.00 | 0.00 | 0.00 | 48 | 1027.2 |
| 20260508130046 | 13 | 15 | 11.3 | 29.0 | 0.00 | 0.00 | 0.00 | 51 | 1027.2 |
| 20260508124546 | 13 | 351 | 8.0 | 29.0 | 0.00 | 0.00 | 0.00 | 51 | 1027.2 |
| 20260508123056 | 13 | 11 | 14.5 | 29.0 | 0.00 | 0.00 | 0.00 | 47 | 1027.3 |
| 20260508121545 | 13 | 73 | 12.9 | 27.4 | 0.00 | 0.00 | 0.00 | 49 | 1027.3 |
| 20260508120046 | 13 | 34 | 14.5 | 30.6 | 0.00 | 0.00 | 0.00 | 48 | 1027.4 |
| 20260508114549 | 13 | 63 | 12.9 | 33.8 | 0.00 | 0.00 | 0.00 | 49 | 1027.3 |
| 20260508113054 | 13 | 87 | 17.7 | 35.4 | 0.00 | 0.00 | 0.00 | 48 | 1027.3 |
| 20260508111544 | 13 | 10 | 17.7 | 33.8 | 0.00 | 0.00 | 0.00 | 51 | 1027.3 |
| 20260508110040 | 13 | 39 | 14.5 | 27.4 | 0.00 | 0.00 | 0.00 | 51 | 1027.4 |
| 20260508104541 | 13 | 66 | 14.5 | 27.4 | 0.00 | 0.00 | 0.00 | 50 | 1027.3 |
| 20260508103040 | 13 | 17 | 9.7 | 25.7 | 0.00 | 0.00 | 0.00 | 52 | 1027.2 |
| 20260508101536 | 13 | 94 | 16.1 | 32.2 | 0.00 | 0.00 | 0.00 | 52 | 1027.3 |
| 20260508100035 | 13 | 84 | 14.5 | 27.4 | 0.00 | 0.00 | 0.00 | 52 | 1027.3 |
| 20260508094542 | 13 | 45 | 12.9 | 29.0 | 0.00 | 0.00 | 0.00 | 53 | 1027.3 |
| 20260508093034 | 13 | 30 | 11.3 | 29.0 | 0.00 | 0.00 | 0.00 | 53 | 1027.3 |
| 20260508091535 | 13 | 103 | 14.5 | 30.6 | 0.00 | 0.00 | 0.00 | 53 | 1027.2 |
| 20260508090028 | 12 | 22 | 11.3 | 30.6 | 0.00 | 0.00 | 0.00 | 54 | 1027.3 |